Content
SEND FEEDBACK

Daily
Averages
Monthly
Summary
United States of America

NEWARK, NEW JERSEY


Home > North America > United States > New Jersey
Elevation: 30 feet     Latitude: 40 42N     Longitude: 074 10W

WEATHER
 
SELECT A DAY
Number of Records: 192,597;   Date Range: 1/1/95 - 10/30/14
 
SHARE

PRINT THIS DATA

[ ← Previous Day ]
WEATHER ALMANAC - OCTOBER 1, 2013
[ Next Day → ]
[ °C ]   °F
Weather ElementAverageHighLow
Temperature69.2 °F82 °F (2:51 pm)53.1 °F (5:51 am)
Dewpoint54.6 °F59 °F (7:51 pm)50 °F (5:51 am)
Humidity62.8 %89 % (5:51 am)38 % (12:51 pm)
Barometer29.96 in30.01 in (6:51 am)29.90 in (4:51 pm)
Wind Speed4.8 mph13.8 mph (4:51 pm)
Wind Gust20.7 mph (4:51 pm)
Weather ElementAverage
Visibility9.9 mi
Wind DirectionS (180.4 °)

Weather ElementTotal
Precipitation---
Cooling Degree Days2.6 (Base 65)
Growing Degree Days17.6 (Base 50)
Averaged from 23 records on October 1, 2013
WEATHER CONDITIONS BREAKOUT
WIND DIRECTION BREAKOUT
WEATHER BY HOUR - OCTOBER 1, 2013
[ °C ]   °F
Local TimeTemperatureDewpointHumidityBarometerVisibilityWind DirectionWind SpeedGust SpeedPrecipitationEventsConditions
1:51 AM57.9 °F54.0 °F87 %30.00 in10.0 miSW (230°)8.1 mphPartly Cloudy
2:51 AM57.9 °F53.1 °F84 %29.99 in10.0 miWSW (240°)4.6 mphPartly Cloudy
3:51 AM57.0 °F52.0 °F83 %29.99 in10.0 miSSW (210°)3.5 mphPartly Cloudy
4:51 AM55.9 °F52.0 °F87 %29.99 in10.0 miSSW (200°)3.5 mphPartly Cloudy
5:51 AM53.1 °F50.0 °F89 %30.00 in10.0 miSSW (210°)4.6 mphPartly Cloudy
6:51 AM55.0 °F52.0 °F89 %30.01 in10.0 miSSW (200°)4.6 mphPartly Cloudy
7:51 AM57.0 °F53.1 °F87 %30.01 in9.0 miSSW (200°)4.6 mphPartly Cloudy
8:51 AM63.0 °F53.1 °F70 %30.01 in9.0 miCalmScattered Clouds
9:51 AM69.1 °F54.0 °F58 %30.01 in10.0 miCalmPartly Cloudy
10:51 AM73.9 °F54.0 °F50 %30.00 in10.0 miCalmPartly Cloudy
11:51 AM78.1 °F52.0 °F40 %29.98 in10.0 miCalmPartly Cloudy
12:51 PM80.1 °F52.0 °F38 %29.96 in10.0 miCalmScattered Clouds
1:51 PM81.0 °F53.1 °F38 %29.94 in10.0 miCalmScattered Clouds
2:51 PM82.0 °F54.0 °F38 %29.92 in10.0 miWest (280°)8.1 mphScattered Clouds
3:51 PM82.0 °F55.9 °F41 %29.91 in10.0 miWNW (290°)5.8 mphScattered Clouds
4:51 PM81.0 °F55.9 °F42 %29.90 in10.0 miWest (270°)13.8 mph20.7 mphScattered Clouds
5:51 PM78.1 °F57.9 °F50 %29.91 in10.0 miWest (260°)8.1 mphScattered Clouds
6:51 PM75.9 °F57.9 °F54 %29.91 in10.0 miSW (230°)5.8 mphScattered Clouds
7:51 PM73.9 °F59.0 °F59 %29.93 in10.0 miWest (260°)6.9 mphPartly Cloudy
8:51 PM72.0 °F59.0 °F64 %29.94 in10.0 miWest (280°)6.9 mphPartly Cloudy
9:51 PM71.1 °F57.9 °F63 %29.95 in10.0 miWest (270°)8.1 mphPartly Cloudy
10:51 PM69.1 °F57.0 °F65 %29.95 in10.0 miWest (270°)6.9 mphClear
11:51 PM66.9 °F55.9 °F68 %29.95 in10.0 miWSW (250°)5.8 mphClear
Hourly data recorded from KEWR, located miles away from Newark, New Jersey







STORIES FROM OUR PARTNERS